Location: Igri�s
(42.2144°N, 0.4320°W)
Time: 18:58:48
(UTC+00:00)

Iridium 4 Rocket - Pass Details

Date: 13 August 2020
Orbit: 586 x 903 km, 86.9° (Epoch: 20 September)

Event Time Altitude Azimuth Distance (km) Brightness Sun altitude
Exits shadow 22:05:13 50° 4° (N) 769 3.7 -27.0°
Drops below altitude 10° 22:08:20 10° 3° (N) 1,926 6.3 -27.3°
Sets 22:10:30 0° 3° (N) 2,824 7.3 -27.5°
